Wind_Speed
48 49 50 52 53 54 55 56 57 58 58 58 58 58 58 57 54 53 53 51 50 49 47 43 39 36 35 35 35 35 32 29 29 30 29 29 28 25 24 24 26 29 33 34 33 33 33 32 31 29 28 28 30 31 31 32 33 33 33 32 31 31 29 28 27 26 24 24 24 23 24 24 24 23 21 20 19 18 17 16 15 14 14 13 13
48 50 51 52 54 55 57 58 59 60 62 62 61 61 61 61 60 58 57 57 55 54 53 51 47 43 40 38 37 36 34 31 30 30 31 33 31 28 27 27 26 28 32 36 36 34 35 35 34 32 31 30 29 30 32 33 33 34 35 34 33 33 31 30 29 28 27 26 26 25 25 25 26 25 24 22 21 20 19 18 17 16 16 15 14
49 50 51 53 54 55 56 58 59 61 62 64 65 64 64 64 64 63 63 63 62 59 57 57 55 51 47 44 41 39 37 34 31 29 33 36 35 31 30 30 29 27 28 33 36 37 37 37 36 36 35 33 31 31 32 33 34 35 35 36 36 34 33 31 30 29 28 28 28 27 27 26 26 26 26 25 23 22 21 20 19 19 18 17 16
51 52 53 54 55 56 57 57 58 59 61 63 65 67 67 67 67 67 67 67 66 65 62 60 59 58 54 50 47 45 43 40 35 32 35 39 37 35 33 32 30 28 27 29 32 36 38 39 39 39 38 37 35 32 32 33 35 35 35 36 37 36 35 33 32 30 28 28 28 29 28 27 27 27 27 27 25 24 23 22 21 21 19 18 17
53 53 54 54 55 56 57 58 58 58 59 60 62 65 68 69 69 69 69 69 69 69 67 65 63 62 59 56 52 49 48 47 44 41 41 42 40 38 36 34 32 31 30 29 29 32 36 39 41 42 42 40 38 35 33 33 34 36 36 36 37 37 36 35 34 32 30 28 29 29 29 28 28 28 28 27 27 26 25 24 23 22 20 19 18
54 54 53 53 54 54 55 55 56 57 57 58 60 62 64 67 70 71 71 71 71 71 71 70 67 65 63 60 56 53 50 50 50 49 47 46 45 43 41 38 36 34 32 31 30 29 32 35 39 43 44 43 40 37 35 34 34 36 37 37 36 36 36 35 34 33 31 29 29 30 29 28 27 27 27 27 27 27 26 25 24 22 20 20 20
54 53 52 51 51 52 53 53 54 54 54 55 57 59 61 64 67 70 72 73 72 72 73 72 70 68 67 64 60 56 52 50 50 49 47 46 46 46 46 44 40 37 34 33 32 31 30 32 36 41 45 46 42 38 36 35 35 35 37 37 36 36 36 35 34 34 33 30 30 31 30 29 27 26 26 27 27 27 27 26 24 22 21 21 20
52 51 50 49 48 49 49 50 51 51 51 52 53 55 57 60 63 67 71 73 74 74 73 73 72 71 69 67 63 60 54 51 50 48 45 44 44 45 47 47 44 40 36 35 34 31 30 32 34 37 42 45 44 41 38 38 37 36 37 38 38 36 35 34 34 34 34 32 31 31 32 31 29 28 27 27 27 27 27 26 24 23 22 22 21
49 47 46 45 45 45 46 47 48 48 48 48 49 51 54 56 59 64 67 71 73 75 75 74 73 72 71 69 66 63 58 54 52 50 46 44 43 45 47 49 48 44 40 37 35 33 33 34 34 35 39 43 44 43 40 40 40 39 39 39 38 37 35 34 34 34 34 34 32 32 32 32 31 30 29 29 28 28 27 26 24 23 23 22 22
47 45 44 43 42 42 43 43 44 45 46 46 46 48 50 53 55 59 64 68 71 73 75 75 74 73 72 70 68 65 61 57 54 50 46 44 43 44 47 50 50 48 44 39 36 36 37 37 35 35 36 40 43 43 41 41 42 41 40 39 39 38 37 35 35 35 35 34 32 32 32 32 32 32 31 31 30 29 28 26 24 24 23 23 22
47 45 44 42 41 40 40 41 41 42 44 44 44 44 46 50 52 56 60 65 68 71 73 74 75 74 72 71 70 67 64 61 56 50 47 47 45 45 48 50 50 49 47 41 37 36 39 39 37 35 36 38 42 43 42 43 43 41 41 40 39 39 38 36 36 36 35 33 31 31 31 31 31 32 32 32 32 30 29 27 26 25 24 23 23
47 46 44 41 40 39 39 39 40 40 42 43 43 42 43 46 50 53 56 61 66 69 71 72 74 74 73 72 70 69 67 64 59 53 50 50 50 49 49 48 48 50 50 46 42 40 40 40 39 37 36 37 39 41 42 43 43 42 41 40 39 39 38 37 36 36 36 35 32 31 30 29 29 31 32 32 32 31 30 28 27 25 23 23 24
47 45 43 40 39 39 39 39 39 39 40 41 42 41 41 43 46 50 53 57 63 67 70 71 73 74 74 72 71 70 68 66 64 60 56 54 52 51 50 49 49 51 51 50 49 48 45 42 39 38 37 37 37 39 41 43 43 42 41 40 40 39 38 37 37 36 37 36 35 33 31 29 29 30 32 33 33 32 31 29 29 26 23 23 25
47 44 41 39 38 38 38 38 38 38 38 40 41 41 40 41 43 47 51 55 59 65 69 70 71 73 74 74 72 71 70 69 68 66 62 56 52 51 52 53 53 54 55 56 55 53 50 45 40 36 37 38 38 39 41 42 42 42 41 40 39 38 38 38 37 37 37 36 36 35 33 32 30 28 31 34 34 33 32 30 29 27 24 24 26
47 44 41 39 38 38 38 38 37 36 36 37 39 40 40 40 41 45 49 53 56 61 67 70 71 72 74 74 74 73 72 71 70 69 66 60 55 54 54 55 54 54 58 60 58 54 50 47 43 38 37 39 40 40 42 42 42 41 40 40 39 38 37 38 38 38 38 37 37 35 33 33 29 27 31 37 36 34 33 30 29 27 25 25 27
47 44 41 40 39 38 38 38 37 35 35 35 37 39 40 40 41 43 47 51 54 58 64 68 70 71 73 75 76 75 75 74 72 71 70 65 60 57 57 60 61 59 57 58 57 53 49 46 45 42 40 40 41 41 42 42 41 41 40 39 38 37 37 37 37 37 38 38 37 35 33 32 29 28 33 38 37 34 33 30 28 28 27 27 28
46 43 42 41 40 40 40 39 38 36 34 34 35 37 39 40 41 43 45 49 52 56 61 66 70 71 73 75 77 78 77 77 74 73 72 70 65 62 61 64 68 66 60 57 55 53 49 46 46 46 42 40 40 40 42 42 42 41 40 38 37 37 36 36 35 35 36 37 37 36 35 34 33 33 35 38 37 35 33 31 28 29 30 30 31
45 43 42 42 42 41 41 41 39 37 35 33 33 35 37 39 41 43 45 48 51 54 58 64 68 71 73 74 77 79 79 79 77 75 74 72 70 68 66 66 67 67 64 60 57 55 51 49 49 48 43 39 39 41 41 42 42 41 40 38 37 37 37 35 33 33 33 34 36 37 37 36 35 35 36 37 36 34 33 31 29 30 31 33 34
45 43 43 43 43 43 43 42 41 39 36 34 33 34 36 38 41 43 45 47 50 53 57 61 67 70 73 74 76 79 80 81 79 78 77 75 72 72 71 68 66 65 65 64 61 57 54 53 51 48 44 41 41 42 42 41 42 42 40 38 36 38 37 34 32 31 31 32 34 35 36 37 36 36 37 37 36 34 34 33 32 32 34 35 37
45 43 44 44 44 44 43 43 43 41 38 35 33 33 34 37 40 43 45 47 50 53 55 60 65 69 72 74 75 78 81 82 81 80 79 77 75 73 72 69 66 66 66 66 64 61 58 57 53 50 48 46 44 43 43 42 42 43 41 39 38 40 39 34 31 31 32 32 32 34 36 37 37 37 38 38 37 36 36 35 35 35 36 37 37
45 44 44 45 45 45 45 44 43 43 40 37 35 33 33 35 38 42 45 48 50 53 55 59 63 67 71 73 75 77 79 82 83 82 80 78 76 75 74 71 68 67 67 67 66 64 62 60 55 52 52 51 47 45 44 44 44 44 44 43 42 41 40 37 35 35 35 35 34 37 39 38 37 39 39 38 38 37 37 36 35 35 36 37 37
45 45 45 46 46 46 46 45 44 43 42 39 36 34 33 34 36 40 44 47 51 53 56 58 62 66 70 73 75 76 78 81 83 83 82 80 77 75 75 73 69 67 68 67 67 66 65 62 58 55 54 53 51 47 46 45 45 46 46 46 44 43 42 41 40 39 39 38 37 40 41 39 37 37 37 37 37 38 38 37 36 36 36 36 36
45 45 46 46 46 47 47 47 46 44 43 41 38 35 33 33 35 38 41 46 50 54 56 59 61 64 68 71 74 76 77 79 82 84 83 81 79 77 77 75 70 67 67 67 67 67 66 64 61 59 58 56 53 50 47 46 46 47 48 48 46 44 43 44 43 42 41 40 39 40 41 40 40 38 36 36 37 38 38 40 39 38 37 36 36
45 46 47 47 47 47 48 47 46 45 43 41 39 36 33 33 34 36 39 43 48 53 56 58 60 63 67 70 73 75 77 79 81 84 84 83 81 79 78 76 72 68 67 66 67 68 69 69 66 64 62 58 54 51 49 47 47 47 47 47 46 45 44 44 45 43 41 41 43 43 41 40 42 41 38 37 38 39 40 41 42 41 41 41 40
46 47 47 47 48 48 49 48 47 45 43 41 40 37 34 32 33 34 37 40 45 51 55 57 59 62 65 69 72 74 76 78 80 83 84 84 82 81 79 78 75 70 67 67 67 68 71 72 70 67 64 60 56 53 51 50 49 47 46 46 46 45 44 45 45 43 42 42 43 44 41 39 39 39 38 38 40 41 41 42 43 43 44 44 43
47 47 48 48 48 49 50 50 48 45 42 41 40 38 35 33 32 33 35 37 41 47 52 57 60 59 60 65 71 73 75 78 80 82 83 84 83 81 80 78 76 73 69 68 67 67 69 71 71 68 65 62 59 56 54 52 51 49 47 46 45 44 44 44 43 42 42 42 42 42 42 40 36 34 35 38 41 43 43 44 43 44 44 43 41
48 49 48 48 49 50 51 51 49 46 42 40 39 37 35 33 32 32 33 35 38 43 49 55 58 59 61 65 70 72 74 77 79 80 82 83 83 82 80 78 77 75 72 69 68 67 67 69 70 68 65 63 61 58 57 55 54 52 50 48 46 44 43 42 41 40 40 40 40 40 40 40 38 36 37 39 42 43 43 43 42 42 42 42 42
49 49 49 49 50 50 51 51 50 47 43 40 38 37 35 33 32 32 32 34 36 40 45 51 56 61 65 67 68 70 73 75 77 79 81 83 83 83 81 79 76 74 72 70 69 67 65 67 69 69 67 65 62 61 59 58 56 54 53 51 49 47 45 43 41 40 40 39 39 38 38 38 38 38 37 39 42 42 41 40 40 40 40 41 43
50 50 51 51 51 51 51 51 50 47 43 40 38 36 34 32 31 31 31 33 35 38 42 48 54 60 65 66 67 70 73 74 75 77 80 83 84 84 82 80 77 74 71 70 69 68 66 66 68 69 68 66 64 63 62 60 58 56 54 53 52 50 49 46 44 43 42 41 40 39 38 38 38 38 38 39 40 40 39 39 40 40 39 40 43
51 51 52 53 53 53 52 50 49 47 43 39 37 35 33 31 31 30 30 32 34 36 39 44 50 57 63 65 67 69 71 73 75 77 79 82 84 84 83 80 78 75 72 69 69 69 67 66 68 69 69 67 65 64 63 62 60 57 55 54 53 52 51 49 46 45 43 43 42 41 40 39 39 39 39 39 38 38 39 40 40 40 41 42 43
53 53 54 54 55 55 52 49 47 45 42 38 36 34 31 30 29 29 29 31 33 35 37 41 46 54 60 64 66 68 70 72 74 76 78 80 82 84 83 81 78 76 73 69 68 69 69 68 68 69 69 67 65 64 64 63 61 58 57 55 54 53 53 50 48 46 45 45 45 44 42 41 41 41 41 41 40 40 41 42 42 43 44 46 48
54 55 55 55 56 55 52 48 45 43 40 36 34 32 30 28 27 28 28 29 30 33 35 39 43 49 56 62 65 67 69 71 74 76 77 77 79 81 83 82 79 77 74 70 69 69 70 70 68 68 69 68 65 64 65 64 62 60 57 56 55 54 54 52 50 49 48 48 48 47 45 44 43 43 44 44 44 44 44 45 46 46 47 48 50
55 56 56 56 55 54 51 47 43 40 37 34 31 29 27 25 23 23 25 25 27 29 32 36 40 45 51 58 63 67 69 71 73 75 76 76 77 79 82 82 80 77 74 71 69 69 71 71 69 68 69 68 66 65 64 63 62 60 58 57 57 56 55 54 52 52 51 50 49 49 47 46 45 45 46 48 49 49 50 50 49 49 49 50 52
57 57 56 55 53 52 49 45 41 37 33 30 29 26 24 22 19 19 21 22 23 25 28 31 36 41 47 54 61 65 68 70 71 73 74 75 75 77 79 81 80 78 75 72 70 69 69 70 69 68 69 69 67 66 65 63 61 59 58 59 59 58 57 55 54 54 53 51 51 50 48 47 47 48 50 51 50 50 52 52 51 51 52 54 56
59 58 56 53 51 50 47 42 38 34 29 26 26 23 20 18 17 16 18 19 20 22 24 27 31 37 43 50 57 63 66 68 69 71 73 74 75 75 77 79 80 78 75 73 73 70 67 67 68 68 69 71 70 68 67 66 63 61 60 60 60 60 58 57 56 55 53 52 51 51 49 48 48 50 53 53 51 51 53 53 52 53 56 59 62
59 57 54 52 49 47 43 38 34 31 26 23 22 20 17 15 15 16 17 19 20 21 23 26 29 33 40 47 54 60 64 67 68 69 71 73 74 75 75 76 79 79 75 73 74 72 67 65 66 67 68 71 72 71 70 69 67 65 64 63 62 61 60 59 57 56 54 53 52 52 52 52 52 51 52 52 52 53 54 54 54 56 59 62 65
58 55 52 50 48 44 39 33 30 27 23 20 18 17 16 15 14 16 19 20 20 21 23 25 27 31 36 42 49 56 62 65 66 67 68 70 72 74 75 76 78 79 75 69 70 73 72 67 65 66 67 68 69 70 70 70 69 68 66 65 64 63 62 60 58 57 56 54 51 50 52 55 56 55 53 53 52 53 55 57 59 61 62 64 66
56 52 49 47 45 41 34 28 25 23 20 17 15 14 14 14 15 16 19 19 20 20 21 23 26 28 32 36 43 51 58 62 64 65 66 68 70 73 75 75 76 78 77 71 69 73 76 73 68 66 66 65 65 66 67 67 67 67 66 65 65 65 64 62 60 59 58 56 52 49 50 52 54 55 54 54 55 56 58 61 64 65 66 68 69
53 49 45 43 41 36 29 24 21 20 17 15 13 12 13 13 14 16 17 18 18 19 20 21 23 26 29 32 37 44 52 59 62 63 64 65 68 70 73 75 75 77 79 77 74 73 76 75 72 68 66 65 64 64 65 65 66 65 65 65 64 64 64 64 63 62 61 59 57 55 53 53 53 54 54 55 56 58 61 63 65 66 67 68 69
51 47 42 38 35 30 24 20 18 17 15 13 13 13 13 13 13 13 14 15 17 19 21 22 22 23 25 28 32 39 48 55 59 60 61 62 64 67 69 72 75 78 80 79 75 70 71 73 73 70 68 66 65 65 64 64 65 65 65 64 64 63 62 62 62 62 62 61 61 61 59 58 57 57 57 57 57 58 60 62 63 64 65 67 69
48 44 39 34 30 25 20 17 16 15 14 13 14 13 12 12 13 13 13 14 16 18 19 21 21 19 20 24 29 36 43 50 55 57 58 58 60 62 65 69 74 75 76 77 74 69 68 70 72 72 71 69 67 66 64 64 64 65 65 64 64 63 61 60 60 60 60 60 60 61 62 61 60 60 60 61 60 61 62 63 64 65 67 69 71
44 40 35 30 25 20 16 15 14 14 13 13 14 14 12 11 13 14 13 13 14 15 15 16 17 15 16 21 26 32 39 46 51 53 53 54 56 57 57 63 69 69 69 73 75 72 68 67 68 71 73 72 70 69 67 66 65 65 64 64 64 63 62 60 59 58 58 58 58 58 59 59 59 59 60 61 63 64 65 66 68 69 71 72 73
39 34 29 25 20 16 14 13 13 13 13 12 14 14 12 11 13 15 14 14 14 15 15 16 17 17 17 20 24 28 34 40 48 52 51 52 54 52 48 51 62 68 69 72 74 72 68 66 66 68 71 74 73 72 71 69 68 66 65 64 64 63 63 62 61 60 59 58 56 56 57 58 59 60 61 61 63 65 67 69 70 71 72 73 74
33 29 24 19 15 13 12 12 12 12 12 12 13 15 15 13 14 16 17 18 18 18 18 19 21 22 19 17 21 28 31 33 41 50 52 51 53 52 47 46 55 64 67 68 69 67 65 65 65 65 68 72 74 75 74 72 71 69 67 66 65 64 64 63 63 62 62 61 60 59 59 59 60 62 64 66 68 69 71 72 73 74 75 76 77
27 23 19 14 11 10 10 10 11 11 12 12 12 14 17 16 14 16 18 19 20 21 21 22 23 23 19 16 20 29 33 33 37 47 51 49 51 53 50 48 52 58 62 63 63 61 60 60 61 62 64 67 71 74 75 74 73 72 70 68 66 65 63 62 62 63 63 63 62 62 62 62 62 62 63 65 67 70 73 75 76 77 78 78 78
22 18 13 10 8 8 9 9 10 10 11 11 12 14 17 18 16 17 18 19 20 23 25 26 25 23 21 19 21 28 34 38 42 46 48 47 49 52 51 50 52 57 60 60 58 56 55 55 56 57 59 60 63 66 70 73 74 73 71 69 67 65 62 61 60 60 61 61 62 62 62 63 63 63 63 63 65 68 71 72 73 74 74 74 74
17 13 9 7 7 7 8 8 9 9 10 11 12 14 17 18 18 18 18 18 20 23 25 26 25 23 23 25 27 29 33 40 46 47 46 46 48 51 51 51 53 57 59 58 55 53 52 52 53 54 56 57 57 58 61 64 67 69 69 69 68 66 64 62 60 60 60 61 61 61 61 61 61 61 61 62 65 68 70 72 73 74 74 73 73
13 9 7 7 7 7 7 7 8 8 9 10 11 12 14 15 16 15 14 15 19 22 23 24 24 25 29 32 30 27 31 41 48 49 48 48 49 49 50 50 52 56 58 58 55 51 48 48 50 52 53 55 55 56 58 59 59 60 60 61 62 63 63 63 62 62 62 62 62 62 62 62 62 61 61 62 64 67 69 71 72 73 73 72 72
9 6 6 6 6 6 6 6 6 7 8 8 9 10 10 11 11 10 11 14 19 21 22 24 27 29 33 33 27 22 26 38 46 49 51 50 50 50 50 49 50 53 56 56 54 49 45 45 47 48 50 53 55 56 57 58 58 57 55 55 55 56 57 59 60 61 61 62 62 62 62 63 63 63 62 63 64 66 67 67 68 68 68 69 70
6 5 4 4 5 5 5 4 5 6 6 6 7 7 7 7 7 8 10 16 20 22 24 28 31 31 32 33 29 24 25 32 40 47 52 52 50 50 50 48 48 49 52 54 52 49 45 44 45 45 47 49 52 53 55 57 59 59 58 57 56 56 56 57 58 59 59 60 61 61 61 62 62 62 62 62 63 64 65 66 67 67 67 67 67
4 3 3 3 3 3 3 3 4 4 3 4 5 6 6 6 7 8 13 20 24 26 29 33 34 32 32 33 30 26 25 28 35 45 52 53 52 52 51 49 48 48 49 50 49 47 45 45 44 45 47 49 50 52 54 57 60 61 60 60 60 59 59 60 61 60 60 60 60 60 60 60 60 61 61 61 62 64 65 66 66 66 66 65 66
Wind_Direction
269 267 265 263 261 259 258 258 257 256 254 251 248 245 243 240 238 240 241 239 236 235 235 234 234 236 235 234 232 230 229 232 236 243 249 252 253 251 247 247 248 243 236 233 230 228 228 229 230 233 233 232 230 228 226 226 225 224 223 222 221 221 222 223 227 230 233 235 234 231 228 227 228 227 226 227 230 233 236 240 242 244 245 249 254
275 272 270 267 265 262 259 257 256 255 255 253 250 247 245 242 239 238 239 240 239 236 236 236 235 235 234 234 233 230 228 230 233 237 245 251 252 251 246 244 245 245 240 236 233 230 228 228 230 232 234 234 233 230 228 227 226 226 225 224 224 223 224 225 228 231 233 234 235 233 231 229 229 228 229 229 231 232 234 237 241 246 249 251 255
280 279 277 274 271 268 264 261 257 255 253 253 252 249 245 243 241 239 238 240 241 239 237 238 238 237 236 234 234 233 230 230 231 234 242 250 253 252 248 243 242 244 242 239 236 233 230 228 229 231 234 235 235 233 231 228 228 227 227 227 226 225 225 225 227 229 231 231 233 233 231 230 229 230 230 231 232 233 235 238 242 247 251 252 254
285 283 281 279 277 274 271 267 263 259 255 252 251 250 247 244 241 240 238 239 240 241 239 238 238 238 238 237 236 235 234 233 233 236 244 249 251 253 250 243 240 240 241 241 239 237 235 232 231 231 233 234 234 235 234 231 230 229 229 228 228 227 226 226 227 229 229 229 229 231 230 229 230 230 231 232 234 236 238 240 243 248 252 254 255
288 285 283 281 279 277 275 272 268 264 260 255 251 249 248 246 242 239 238 237 238 239 240 238 238 238 238 239 239 237 235 235 235 237 243 247 249 252 250 245 241 240 241 241 242 241 239 237 236 235 234 235 235 235 237 235 232 231 230 230 229 228 227 226 228 229 229 228 227 228 228 229 230 232 233 234 236 238 241 243 245 248 251 253 254
291 289 286 284 282 279 277 274 271 267 264 259 255 250 247 245 244 241 238 236 235 236 238 238 237 237 238 239 239 238 236 236 236 237 241 246 249 251 251 247 243 242 244 244 244 245 244 243 242 239 238 237 237 237 239 239 236 233 232 232 231 229 227 226 227 229 229 229 227 226 227 227 230 232 234 236 238 240 242 244 246 248 249 250 252
294 292 289 287 284 282 279 276 273 269 266 261 257 253 248 244 243 241 239 236 234 233 235 236 236 236 236 237 238 237 235 235 236 236 240 245 247 249 251 250 246 243 244 244 244 246 248 248 247 244 241 239 236 234 237 240 238 235 233 232 232 230 228 226 227 228 229 229 228 226 226 226 228 231 233 236 238 239 241 243 245 247 248 249 251
295 293 291 288 286 283 280 277 274 271 267 263 258 254 249 244 242 240 239 237 235 233 232 233 234 234 235 235 236 236 233 232 233 234 236 240 242 243 247 248 246 243 241 241 242 246 248 249 251 249 244 240 235 231 232 236 237 236 233 232 232 231 230 229 228 228 228 229 229 228 226 226 227 230 233 236 237 238 239 242 244 246 248 249 250
297 295 292 290 288 285 281 278 275 272 268 264 259 255 251 245 241 239 238 236 235 233 231 230 231 231 233 233 233 234 230 228 230 232 234 236 234 234 240 245 245 242 239 239 240 242 245 247 251 252 246 241 235 230 230 233 235 234 232 232 232 232 231 230 228 228 227 228 229 229 228 228 229 231 234 237 237 236 237 240 243 246 248 249 250
302 299 297 294 291 287 283 279 276 273 270 266 261 256 252 248 242 238 236 235 234 232 230 229 228 228 229 230 231 231 228 225 227 231 233 233 229 228 233 239 242 240 237 237 237 240 244 246 249 252 249 243 236 232 232 234 233 233 232 231 231 232 232 230 228 226 226 227 230 230 229 229 231 234 236 237 236 235 236 239 242 244 245 246 249
306 304 302 299 294 289 285 281 277 274 271 268 264 258 253 249 244 239 235 234 233 232 230 228 227 225 225 226 228 229 228 225 226 230 233 232 226 224 227 232 236 236 234 233 232 236 242 244 246 249 249 245 238 234 234 233 232 232 231 229 230 232 232 231 229 226 225 226 229 231 230 230 233 235 238 238 237 234 235 238 240 242 243 246 251
310 307 305 301 296 292 288 284 280 276 273 269 265 260 254 249 245 241 236 232 231 231 230 227 226 224 222 223 224 226 226 226 225 225 227 225 222 221 224 228 232 232 231 230 228 231 238 242 244 246 247 246 240 234 232 232 231 230 228 227 229 231 232 232 230 227 225 224 225 226 227 229 234 238 239 238 237 235 235 237 239 240 243 249 253
311 309 306 302 298 295 291 287 283 279 274 270 266 262 255 249 245 241 237 232 230 230 229 227 225 223 221 220 221 223 224 224 223 220 219 218 217 217 220 225 229 229 227 227 228 230 235 239 241 244 245 245 240 234 231 230 230 228 226 225 228 231 233 233 232 229 226 224 223 222 221 223 228 237 240 238 237 236 236 237 239 239 242 248 252
311 309 306 303 300 297 295 292 287 282 276 271 266 262 256 249 244 241 238 234 229 228 228 227 225 222 220 218 217 219 220 221 221 219 216 214 213 213 215 220 226 228 225 225 229 231 235 238 238 241 244 243 239 234 231 230 230 227 224 224 227 230 233 233 232 230 227 224 223 221 220 219 219 228 239 239 236 235 235 236 237 238 239 243 247
312 310 307 305 302 301 299 297 292 286 280 272 266 262 256 250 244 239 237 234 230 227 227 227 225 222 219 217 215 216 217 219 219 218 216 213 211 212 214 216 222 226 225 225 228 231 235 236 235 237 242 242 238 234 231 230 230 227 224 225 228 230 231 231 230 229 226 224 223 221 222 221 216 221 235 238 234 234 235 234 234 237 240 242 245
313 311 309 307 306 306 304 302 298 292 284 275 267 261 256 250 244 238 235 233 230 226 225 226 225 223 220 217 214 214 215 217 218 216 215 214 213 213 216 218 222 225 225 224 226 229 233 234 234 237 241 240 237 235 231 229 229 227 225 227 229 230 230 230 229 228 225 223 222 220 220 223 222 224 231 234 232 232 232 231 232 237 242 245 249
313 311 310 309 310 310 309 307 303 297 289 280 271 262 255 249 244 238 234 232 230 227 224 224 225 223 220 217 215 213 213 215 216 215 214 215 217 216 217 220 224 227 227 225 223 227 230 231 232 236 239 239 238 236 232 228 227 226 227 229 231 230 229 228 227 226 225 224 223 220 220 226 230 229 230 231 232 231 230 230 235 243 247 249 251
312 311 311 311 313 313 313 311 307 302 295 285 275 265 256 249 243 238 233 230 229 226 224 223 223 223 221 219 215 213 213 213 214 215 214 216 219 220 220 222 225 227 228 225 222 223 226 228 230 234 237 238 238 236 232 227 225 225 228 230 232 231 229 226 225 224 225 226 225 223 224 227 230 230 231 233 234 234 234 236 242 249 252 252 251
312 312 313 313 315 315 315 313 310 306 300 291 280 270 260 251 243 237 233 229 228 226 224 222 222 222 222 220 217 214 213 213 213 214 215 216 218 220 222 224 225 226 227 225 223 221 222 226 230 232 232 233 233 232 230 227 225 226 228 230 232 232 229 226 225 225 226 228 229 228 228 229 229 231 233 235 236 239 241 244 246 248 250 250 250
312 313 314 315 316 316 316 316 313 308 303 296 286 275 264 254 245 238 233 229 226 225 224 222 221 221 221 220 218 215 213 213 213 213 214 216 217 219 221 223 224 225 226 226 225 222 221 224 228 230 229 230 229 228 227 225 225 227 228 227 229 231 229 224 223 226 228 230 232 233 233 233 233 233 234 235 238 241 243 245 245 245 248 249 251
312 313 315 315 316 316 316 316 314 310 305 300 291 281 269 259 249 240 234 229 226 224 223 222 220 221 221 220 219 217 214 213 213 213 214 215 216 218 220 222 223 225 225 226 225 224 223 223 226 228 229 228 226 225 224 224 224 227 227 225 227 229 227 221 220 224 226 228 232 235 236 235 236 237 237 238 239 240 242 244 244 245 248 251 254
312 313 314 315 316 316 317 317 315 312 307 302 295 286 274 263 254 244 236 230 226 224 223 222 220 220 220 220 219 218 216 214 214 213 213 214 215 217 218 220 222 224 225 225 225 223 223 223 225 228 229 228 225 224 224 223 224 226 226 226 227 227 224 220 220 222 223 225 230 235 237 237 239 240 240 241 242 244 246 248 250 251 253 257 261
312 313 314 315 315 316 316 316 315 312 307 303 297 290 279 268 258 249 240 232 227 224 222 222 221 220 220 219 219 219 217 215 214 214 213 213 214 216 217 218 219 221 223 224 224 222 221 221 224 226 228 227 225 222 222 222 223 225 226 226 227 226 223 222 222 222 222 225 229 233 237 239 242 243 245 247 249 250 251 253 254 255 257 259 261
312 313 314 314 314 315 315 315 314 312 308 303 298 292 283 272 262 254 244 236 229 225 222 222 221 220 220 219 219 219 217 216 215 214 214 213 214 215 217 218 218 220 221 222 223 222 220 220 222 224 225 225 224 222 220 220 221 224 225 227 227 226 224 223 223 223 226 229 229 231 234 239 243 246 248 252 254 254 254 255 255 256 256 256 258
311 312 313 313 313 314 314 314 314 311 307 303 298 293 285 274 265 257 249 240 232 227 223 221 221 221 220 220 219 218 218 216 215 215 214 214 214 215 217 217 218 219 220 220 221 222 221 221 222 223 224 224 224 222 220 220 221 222 224 226 227 226 225 224 224 226 230 232 231 232 235 239 243 246 247 251 254 254 255 255 255 256 257 257 257
311 312 313 313 313 313 314 314 312 310 307 302 297 292 286 276 267 260 252 244 236 229 224 222 221 220 220 220 219 219 218 217 216 215 215 214 214 215 216 217 217 219 220 220 220 221 222 221 222 223 224 224 224 223 222 221 221 221 222 224 226 226 226 226 227 229 232 234 235 236 238 241 244 246 246 249 253 254 256 257 257 257 257 255 254
311 312 312 312 313 313 313 313 311 309 306 301 296 291 285 277 269 262 255 248 239 231 226 222 221 220 220 219 218 218 218 217 216 215 215 215 214 214 215 216 217 219 221 220 220 221 222 222 221 222 223 224 224 224 224 222 222 222 222 223 225 226 226 225 226 227 231 233 235 238 240 243 244 246 247 249 251 253 256 258 259 259 256 253 253
311 312 312 312 312 312 312 312 310 308 305 300 295 290 284 276 269 263 258 251 243 235 228 223 220 221 221 218 217 217 218 217 216 215 215 215 215 215 215 216 217 218 220 220 219 220 222 222 221 221 222 223 224 225 225 224 223 223 223 224 225 227 227 226 225 226 228 231 235 237 240 243 244 244 246 249 253 256 257 258 259 259 256 255 256
311 312 312 312 311 312 311 310 308 306 303 299 294 288 283 276 268 263 258 253 246 238 231 225 221 221 221 219 217 217 217 216 216 215 214 214 214 214 214 215 215 217 219 219 219 219 221 222 222 221 222 223 224 225 226 225 224 224 224 225 226 227 228 228 227 228 229 231 234 237 239 242 243 244 246 250 254 256 255 255 255 255 254 255 258
312 312 312 311 311 311 310 309 306 304 301 297 292 286 281 275 269 264 259 254 248 241 234 228 223 221 221 220 217 216 216 216 215 215 215 215 214 213 213 213 214 215 217 218 218 218 220 221 222 222 222 223 224 225 226 226 225 225 225 225 226 228 229 229 229 231 232 234 235 237 238 240 242 244 246 248 251 252 252 253 254 254 255 258 262
312 312 312 311 311 311 309 307 304 301 298 294 289 284 279 273 269 265 260 255 250 244 237 231 225 222 221 220 218 216 216 216 215 214 215 215 214 213 213 213 213 214 216 218 218 218 219 221 222 222 222 223 224 225 226 226 226 225 225 226 227 228 229 230 230 232 234 236 238 239 240 241 242 243 243 245 247 250 252 254 256 257 261 265 268
312 312 311 311 311 309 307 305 302 299 296 292 287 282 277 272 268 267 263 257 252 247 240 233 228 223 220 219 218 217 216 216 216 215 214 214 214 213 213 213 213 214 215 217 218 219 219 220 221 222 222 223 224 225 226 226 226 226 227 227 228 229 229 229 230 231 234 237 239 241 242 242 243 243 243 244 245 246 249 252 256 259 263 267 267
312 311 312 312 311 308 305 304 301 297 293 289 284 279 275 271 269 270 269 262 255 250 244 236 230 225 221 219 218 217 216 216 216 215 214 213 213 213 213 212 213 213 215 216 219 220 220 220 220 221 221 222 223 224 225 225 227 227 228 229 230 231 231 231 231 232 234 236 239 241 242 244 245 245 245 246 246 247 249 252 255 258 262 263 262
312 312 312 312 310 307 304 303 300 295 291 286 281 276 271 267 264 267 270 266 257 250 246 239 232 226 222 219 218 218 216 215 216 215 214 213 213 212 212 212 212 213 214 216 218 221 221 220 220 221 221 221 222 223 224 225 227 229 230 231 231 232 233 233 233 234 235 237 239 242 244 246 248 248 249 248 249 251 253 254 256 257 258 258 258
312 312 312 312 309 305 303 302 298 294 288 282 277 272 267 263 259 259 264 264 256 248 243 238 231 226 222 219 218 217 216 215 215 215 214 213 212 212 211 211 212 212 214 216 218 221 222 222 220 221 221 222 222 223 224 226 229 231 233 233 233 233 234 234 235 236 237 238 240 243 245 247 248 250 252 252 251 252 253 254 255 256 256 256 258
313 313 313 311 308 304 303 301 296 291 285 279 272 266 257 252 253 253 253 254 252 247 242 236 230 225 222 219 217 217 216 215 214 214 214 213 212 211 211 211 211 211 212 215 218 220 222 222 221 220 221 222 223 224 226 228 231 233 234 234 234 233 233 234 234 236 237 238 241 245 247 247 247 248 252 254 254 253 254 254 254 255 255 256 258
313 313 313 310 307 304 302 299 292 287 282 275 267 259 248 244 246 247 247 249 250 246 242 238 232 226 222 219 217 216 216 215 214 213 213 213 212 211 211 210 210 210 210 213 217 219 220 222 222 221 222 223 224 225 227 229 230 232 233 234 234 233 233 233 234 236 237 239 242 246 249 250 250 249 249 251 252 252 253 255 255 256 256 257 258
313 313 312 309 305 303 301 296 287 282 278 269 257 249 245 245 247 245 244 245 245 242 242 242 237 230 224 220 218 216 215 214 213 212 212 212 211 211 210 210 210 210 210 211 215 218 218 219 221 221 222 223 224 225 226 228 229 230 232 233 234 234 233 233 234 236 238 239 240 241 243 247 250 251 251 250 250 249 250 252 254 256 258 259 261
313 312 311 307 304 301 299 291 281 276 271 259 241 234 239 245 250 251 249 246 240 236 238 241 240 234 227 221 218 217 215 214 213 212 211 211 211 211 210 209 209 210 210 212 215 218 217 217 219 221 222 223 225 225 226 228 229 230 231 233 234 235 235 235 236 237 238 239 239 238 237 239 243 247 249 249 249 248 249 251 253 256 258 260 262
313 312 309 306 302 298 293 284 274 269 263 245 227 226 235 240 243 252 257 253 243 236 234 235 235 233 226 220 217 216 215 213 211 211 210 210 210 211 210 209 209 210 211 213 216 219 218 218 219 221 223 224 226 226 227 228 229 231 232 233 234 235 235 236 237 238 239 240 240 240 239 239 240 242 244 246 246 247 248 250 252 255 258 261 263
313 311 308 305 300 294 286 275 265 261 253 234 220 223 230 230 233 243 253 254 249 244 240 235 230 228 227 221 217 216 214 211 210 209 208 208 209 210 210 209 209 210 212 214 216 219 220 220 220 222 223 225 226 227 228 228 230 231 232 234 235 235 236 236 236 237 238 239 240 241 242 243 243 242 242 244 245 247 249 251 254 256 259 263 265
312 310 307 303 297 288 277 268 259 254 246 230 218 218 222 223 227 233 239 243 244 247 245 233 219 217 225 225 218 214 212 210 207 205 205 206 207 208 209 209 209 210 212 214 215 217 220 222 223 223 224 225 227 228 229 229 230 231 232 234 235 236 237 236 236 236 236 237 238 240 242 245 246 246 246 247 248 250 252 255 257 259 261 263 266
312 310 305 300 292 280 268 261 255 250 245 234 221 215 217 223 224 223 222 222 225 230 230 215 201 202 217 223 217 210 207 205 202 200 200 202 203 202 203 206 209 210 212 214 215 216 219 222 224 225 225 225 227 228 230 230 231 231 232 234 235 236 237 237 237 236 236 235 235 237 240 243 246 248 250 251 252 254 255 257 259 261 262 263 264
313 309 303 296 286 271 261 256 252 248 247 243 227 216 217 223 224 222 220 218 217 216 212 202 197 197 201 208 209 203 196 195 199 200 199 198 198 196 196 199 205 208 209 210 212 215 219 222 224 225 226 226 227 229 231 232 232 232 233 235 236 238 239 239 239 239 239 237 236 237 238 241 243 246 248 249 250 252 253 255 256 258 259 260 261
313 308 301 291 276 263 256 254 251 247 248 249 238 222 216 217 220 223 224 222 218 212 204 199 198 194 187 191 200 194 186 187 195 199 198 195 194 194 194 195 198 201 203 204 208 213 217 220 223 225 226 227 228 229 231 233 234 234 235 236 238 239 240 241 242 243 243 243 242 240 239 239 240 243 245 246 247 249 250 252 253 255 257 259 261
313 306 298 281 265 258 253 250 250 251 250 251 247 231 220 216 218 222 224 223 220 212 203 196 193 187 182 185 187 181 181 188 194 193 192 192 192 194 196 196 195 196 198 201 205 211 215 217 220 222 224 225 227 228 231 233 235 236 237 238 239 241 241 242 243 244 245 246 247 247 245 244 244 245 246 248 250 251 252 254 255 256 258 260 262
311 302 288 267 255 253 250 249 254 257 254 255 253 239 227 222 222 223 223 221 216 210 201 192 186 181 179 178 172 168 178 190 192 187 185 187 189 193 196 197 196 197 198 201 206 210 213 215 217 219 222 224 226 227 229 232 234 237 239 240 241 242 243 244 245 246 247 248 249 250 250 251 250 250 251 252 254 255 256 257 258 259 260 262 265
308 293 275 261 255 251 251 255 262 263 261 261 255 240 230 229 230 229 227 216 206 199 192 184 180 177 175 170 163 164 178 188 188 186 186 186 186 189 193 195 197 200 202 205 208 210 212 214 216 218 220 222 224 225 226 227 230 234 238 240 243 245 246 247 248 249 250 250 250 251 251 252 252 253 253 254 255 256 257 259 260 262 264 266 268
302 285 271 265 260 259 262 268 272 275 272 262 247 234 230 231 231 229 220 202 191 185 180 176 174 173 170 164 157 160 178 186 188 189 190 189 187 189 191 193 198 202 205 208 210 212 213 215 217 218 219 221 224 225 225 226 227 230 233 237 240 243 245 247 249 250 251 251 251 252 252 253 254 254 255 256 258 259 261 262 264 266 268 269 270
297 279 270 267 267 271 279 286 290 288 275 249 230 223 223 222 222 218 199 183 174 171 171 170 168 165 162 159 157 162 175 185 191 194 194 192 191 191 192 195 200 205 208 210 212 214 217 218 219 220 221 223 226 227 227 227 228 229 231 234 237 240 242 245 247 249 250 251 252 253 254 255 256 257 258 259 260 262 263 265 267 268 269 269 270
290 272 268 270 276 282 290 304 310 300 266 217 204 203 203 205 203 190 175 167 165 166 167 165 163 160 158 158 158 162 172 186 195 197 195 194 194 194 195 199 204 207 209 212 214 217 220 222 222 224 225 227 228 229 229 228 229 230 232 235 237 240 242 245 247 248 250 252 253 254 256 257 258 259 260 261 262 263 264 266 267 268 269 270 272
Height
10900 10900 10900 10899 10899 10898 10898 10898 10898 10898 10899 10901 10904 10906 10908 10910 10912 10914 10917 10921 10924 10926 10928 10930 10932 10933 10935 10937 10940 10943 10945 10948 10950 10952 10952 10952 10953 10953 10953 10953 10953 10952 10953 10954 10956 10957 10958 10960 10962 10963 10963 10964 10965 10966 10967 10969 10970 10971 10973 10974 10976 10977 10978 10979 10981 10982 10983 10985 10986 10988 10989 10990 10991 10992 10992 10993 10993 10994 10994 10994 10994 10993 10993 10993 10993
10892 10891 10890 10890 10889 10889 10889 10889 10889 10889 10890 10891 10894 10896 10898 10901 10903 10905 10908 10912 10915 10918 10920 10923 10926 10928 10930 10932 10935 10938 10941 10943 10945 10948 10949 10949 10950 10951 10951 10951 10951 10951 10951 10951 10953 10954 10955 10957 10958 10959 10960 10961 10962 10963 10964 10965 10967 10968 10969 10971 10972 10973 10975 10976 10977 10978 10980 10981 10983 10985 10986 10987 10988 10989 10990 10991 10991 10992 10992 10992 10992 10992 10992 10992 10992
10884 10883 10881 10880 10879 10878 10877 10878 10878 10879 10880 10881 10883 10885 10887 10890 10893 10896 10899 10902 10905 10909 10912 10915 10918 10921 10924 10927 10930 10933 10936 10939 10941 10944 10946 10946 10946 10947 10948 10949 10949 10949 10948 10948 10950 10951 10952 10953 10954 10955 10956 10957 10958 10959 10961 10962 10963 10964 10966 10967 10968 10970 10971 10972 10974 10975 10976 10978 10979 10981 10983 10984 10985 10987 10988 10988 10989 10989 10990 10990 10990 10990 10990 10990 10990
10877 10875 10873 10871 10869 10867 10866 10866 10866 10867 10869 10870 10871 10873 10875 10878 10882 10885 10888 10892 10895 10899 10902 10906 10909 10912 10916 10920 10924 10927 10931 10934 10937 10940 10941 10941 10942 10944 10945 10946 10946 10946 10946 10946 10947 10948 10949 10951 10951 10951 10952 10953 10954 10956 10957 10958 10960 10961 10962 10964 10965 10966 10968 10969 10970 10971 10973 10975 10976 10978 10979 10981 10982 10984 10985 10986 10987 10987 10988 10988 10988 10988 10988 10988 10989
10868 10866 10864 10862 10860 10857 10855 10854 10853 10854 10856 10858 10860 10861 10863 10866 10870 10874 10877 10880 10884 10888 10892 10896 10900 10904 10908 10912 10916 10919 10924 10928 10931 10935 10937 10938 10939 10941 10942 10943 10943 10943 10943 10944 10944 10945 10946 10948 10948 10948 10948 10949 10951 10952 10953 10955 10956 10958 10959 10960 10961 10963 10964 10966 10967 10968 10970 10971 10973 10974 10976 10978 10979 10981 10982 10984 10984 10985 10985 10986 10986 10986 10986 10986 10986
10858 10856 10854 10852 10850 10847 10845 10843 10842 10842 10843 10844 10846 10849 10851 10853 10857 10861 10865 10869 10873 10877 10880 10885 10890 10895 10899 10903 10907 10911 10916 10921 10925 10930 10933 10935 10936 10938 10939 10940 10940 10941 10941 10941 10942 10942 10943 10944 10945 10945 10945 10946 10948 10950 10951 10951 10952 10954 10955 10957 10958 10959 10960 10962 10964 10965 10967 10968 10970 10972 10973 10975 10977 10978 10980 10981 10982 10983 10983 10983 10983 10984 10984 10984 10984
10849 10846 10844 10842 10840 10837 10835 10833 10831 10831 10831 10831 10833 10835 10838 10841 10844 10847 10852 10856 10861 10865 10869 10874 10880 10885 10889 10894 10898 10903 10909 10914 10919 10924 10928 10931 10933 10935 10935 10936 10937 10938 10939 10939 10939 10939 10939 10939 10940 10941 10942 10943 10945 10946 10947 10948 10949 10950 10952 10953 10954 10955 10957 10959 10961 10962 10963 10965 10967 10968 10970 10972 10974 10975 10976 10978 10979 10980 10980 10981 10981 10982 10982 10982 10982
10841 10838 10835 10833 10830 10827 10824 10822 10821 10820 10820 10820 10821 10822 10825 10828 10831 10834 10838 10843 10848 10853 10858 10863 10869 10874 10879 10885 10889 10894 10901 10906 10911 10916 10920 10924 10927 10929 10930 10931 10933 10935 10935 10936 10937 10937 10937 10936 10936 10937 10938 10938 10940 10942 10943 10944 10945 10946 10948 10950 10951 10953 10954 10956 10958 10959 10960 10962 10964 10965 10967 10969 10971 10972 10973 10974 10976 10976 10977 10978 10979 10979 10980 10980 10980
10833 10830 10827 10824 10821 10818 10815 10813 10811 10810 10809 10809 10810 10811 10812 10815 10819 10822 10825 10830 10835 10841 10846 10852 10858 10864 10869 10875 10880 10886 10892 10897 10902 10907 10912 10915 10918 10922 10924 10925 10926 10929 10931 10932 10934 10935 10935 10934 10934 10934 10934 10934 10936 10938 10939 10940 10941 10943 10945 10946 10948 10950 10951 10953 10954 10955 10957 10958 10960 10962 10964 10966 10968 10969 10970 10971 10972 10973 10974 10975 10977 10977 10978 10978 10978
10823 10820 10818 10815 10812 10809 10807 10804 10803 10801 10800 10800 10800 10801 10802 10804 10807 10810 10813 10818 10822 10828 10834 10840 10847 10853 10859 10865 10871 10877 10883 10888 10893 10899 10904 10907 10911 10914 10916 10917 10919 10922 10925 10927 10929 10930 10930 10930 10930 10930 10930 10931 10932 10934 10935 10936 10937 10939 10941 10943 10945 10947 10948 10949 10951 10952 10954 10956 10958 10960 10962 10964 10966 10967 10967 10968 10969 10971 10972 10973 10974 10975 10976 10976 10977
10814 10811 10809 10806 10803 10801 10798 10796 10795 10793 10792 10791 10791 10791 10792 10793 10795 10799 10802 10806 10810 10816 10822 10828 10835 10842 10849 10855 10861 10867 10873 10879 10886 10893 10897 10900 10903 10905 10907 10909 10912 10914 10918 10921 10923 10924 10925 10925 10926 10926 10927 10927 10927 10929 10931 10932 10934 10936 10938 10940 10941 10943 10944 10946 10947 10949 10951 10953 10956 10958 10960 10962 10964 10964 10965 10966 10967 10968 10969 10970 10971 10972 10973 10974 10975
10806 10803 10800 10797 10795 10792 10790 10788 10786 10785 10784 10783 10782 10783 10783 10784 10786 10788 10791 10795 10799 10804 10810 10816 10823 10831 10838 10845 10851 10857 10863 10870 10877 10883 10886 10889 10892 10896 10899 10903 10905 10908 10911 10915 10917 10919 10919 10920 10921 10922 10922 10922 10923 10924 10926 10927 10929 10932 10934 10936 10937 10939 10941 10943 10944 10946 10948 10950 10952 10954 10956 10958 10961 10962 10962 10963 10964 10966 10967 10967 10968 10969 10970 10971 10971
10798 10795 10793 10790 10787 10785 10782 10780 10778 10777 10776 10774 10774 10774 10775 10776 10777 10779 10781 10785 10789 10793 10798 10804 10811 10819 10827 10834 10841 10847 10853 10859 10865 10869 10872 10876 10882 10887 10891 10895 10898 10901 10905 10908 10910 10912 10913 10915 10916 10917 10918 10918 10919 10920 10922 10923 10925 10927 10930 10932 10933 10935 10937 10939 10941 10943 10944 10946 10948 10950 10951 10953 10955 10958 10959 10960 10961 10963 10964 10965 10965 10965 10966 10967 10967
10791 10788 10785 10783 10780 10777 10775 10772 10770 10769 10767 10766 10765 10765 10766 10767 10769 10770 10772 10775 10779 10783 10788 10793 10800 10807 10815 10823 10831 10837 10843 10848 10853 10858 10863 10868 10873 10878 10882 10886 10889 10892 10895 10899 10902 10904 10907 10910 10912 10913 10914 10915 10916 10916 10918 10919 10921 10924 10926 10928 10929 10931 10933 10935 10937 10939 10941 10943 10945 10947 10947 10948 10949 10952 10955 10956 10957 10959 10960 10961 10962 10962 10961 10962 10963
10784 10781 10778 10775 10773 10770 10767 10764 10762 10760 10759 10757 10756 10756 10757 10758 10760 10762 10763 10766 10770 10774 10778 10783 10789 10796 10804 10812 10819 10826 10832 10838 10843 10849 10855 10861 10866 10871 10874 10877 10879 10882 10885 10890 10894 10898 10903 10906 10908 10910 10911 10912 10912 10913 10914 10916 10918 10920 10922 10924 10925 10927 10929 10931 10933 10935 10937 10939 10941 10943 10945 10945 10945 10947 10950 10952 10953 10955 10957 10958 10959 10959 10959 10960 10961
10777 10774 10771 10768 10765 10763 10760 10757 10754 10752 10750 10749 10748 10748 10748 10750 10751 10753 10755 10757 10761 10765 10769 10773 10778 10785 10792 10800 10808 10815 10822 10828 10833 10840 10847 10852 10858 10863 10866 10868 10870 10873 10878 10884 10889 10894 10899 10902 10904 10907 10909 10909 10909 10910 10911 10913 10915 10917 10919 10921 10922 10924 10925 10927 10929 10932 10933 10935 10938 10940 10941 10941 10941 10942 10945 10947 10949 10951 10953 10955 10956 10957 10957 10958 10958
10770 10767 10764 10761 10758 10755 10752 10749 10746 10744 10742 10741 10740 10739 10740 10741 10743 10744 10746 10749 10752 10756 10760 10764 10769 10775 10781 10789 10796 10804 10811 10817 10824 10830 10837 10843 10848 10853 10857 10860 10863 10867 10872 10879 10885 10890 10894 10897 10900 10903 10905 10906 10906 10907 10908 10910 10911 10913 10915 10917 10919 10920 10922 10924 10926 10929 10931 10933 10935 10937 10938 10938 10938 10938 10940 10942 10944 10947 10949 10951 10953 10953 10953 10954 10955
10764 10761 10758 10754 10751 10748 10745 10742 10739 10737 10735 10733 10732 10731 10731 10732 10734 10736 10738 10740 10743 10747 10751 10755 10759 10765 10771 10778 10785 10793 10800 10807 10814 10821 10828 10834 10838 10843 10848 10851 10855 10860 10866 10873 10878 10884 10888 10891 10894 10897 10900 10902 10903 10903 10903 10905 10907 10909 10911 10913 10915 10916 10918 10921 10924 10926 10928 10931 10932 10934 10934 10934 10935 10936 10937 10939 10941 10943 10946 10948 10950 10950 10949 10949 10950
10757 10754 10751 10748 10745 10742 10738 10735 10732 10729 10727 10726 10724 10723 10723 10724 10725 10727 10729 10732 10735 10738 10742 10746 10750 10755 10761 10767 10774 10782 10790 10797 10804 10812 10818 10824 10829 10834 10839 10843 10848 10853 10860 10866 10871 10877 10881 10885 10888 10891 10894 10896 10897 10897 10898 10902 10904 10905 10906 10908 10910 10911 10914 10918 10921 10924 10926 10928 10930 10931 10932 10932 10933 10934 10935 10936 10937 10939 10942 10944 10945 10946 10945 10945 10945
10751 10748 10744 10741 10738 10735 10732 10728 10725 10722 10720 10718 10717 10716 10716 10716 10717 10719 10721 10724 10727 10730 10733 10737 10741 10745 10751 10757 10764 10772 10779 10787 10794 10801 10808 10814 10819 10825 10830 10835 10839 10845 10852 10858 10864 10870 10874 10877 10881 10883 10885 10887 10890 10891 10894 10897 10900 10901 10901 10902 10903 10906 10910 10915 10918 10922 10924 10926 10928 10930 10930 10930 10931 10931 10931 10932 10933 10935 10937 10939 10940 10941 10940 10940 10941
10745 10742 10738 10735 10732 10728 10726 10722 10718 10715 10712 10711 10710 10709 10708 10708 10709 10711 10713 10716 10718 10721 10725 10728 10732 10736 10741 10747 10754 10761 10769 10777 10784 10790 10797 10804 10810 10816 10821 10826 10831 10837 10844 10850 10856 10862 10867 10869 10872 10875 10876 10879 10883 10885 10888 10891 10893 10895 10896 10896 10897 10901 10906 10910 10912 10915 10919 10921 10923 10925 10926 10926 10927 10927 10928 10928 10929 10930 10932 10934 10935 10936 10936 10936 10937
10739 10735 10732 10729 10726 10722 10719 10716 10712 10709 10706 10704 10703 10702 10701 10701 10701 10702 10705 10707 10710 10713 10716 10720 10724 10728 10733 10739 10745 10751 10759 10766 10773 10779 10787 10794 10801 10806 10811 10816 10823 10829 10835 10841 10847 10853 10859 10863 10865 10867 10869 10871 10875 10878 10881 10885 10887 10889 10890 10891 10892 10897 10901 10903 10904 10907 10910 10912 10914 10917 10919 10921 10922 10923 10924 10924 10925 10926 10927 10929 10930 10931 10932 10931 10931
10733 10729 10726 10723 10720 10716 10713 10709 10706 10702 10699 10697 10695 10695 10694 10694 10694 10695 10697 10699 10702 10705 10708 10712 10716 10720 10725 10730 10736 10742 10749 10756 10763 10769 10777 10784 10791 10796 10802 10807 10814 10821 10826 10832 10838 10845 10851 10855 10858 10859 10860 10863 10868 10872 10875 10878 10881 10883 10884 10886 10889 10892 10896 10898 10899 10901 10903 10905 10907 10910 10914 10916 10917 10918 10920 10921 10921 10922 10923 10924 10925 10926 10927 10927 10926
10727 10724 10720 10717 10714 10710 10707 10704 10700 10696 10693 10690 10688 10688 10687 10686 10686 10687 10689 10691 10694 10697 10700 10705 10709 10713 10717 10722 10727 10733 10740 10746 10753 10759 10766 10774 10781 10787 10792 10799 10805 10812 10817 10823 10829 10836 10841 10844 10846 10849 10853 10857 10862 10866 10869 10872 10875 10877 10880 10882 10885 10888 10891 10892 10894 10896 10898 10900 10902 10905 10908 10911 10912 10914 10916 10916 10916 10917 10917 10918 10919 10920 10921 10921 10921
10721 10718 10715 10711 10708 10704 10701 10697 10694 10691 10687 10684 10682 10681 10680 10679 10679 10680 10681 10684 10686 10689 10693 10698 10702 10707 10711 10715 10719 10724 10731 10737 10743 10750 10757 10765 10772 10778 10784 10790 10797 10803 10808 10814 10821 10826 10831 10834 10838 10842 10847 10852 10856 10860 10863 10866 10869 10872 10875 10877 10879 10882 10885 10887 10889 10891 10893 10895 10897 10900 10903 10905 10907 10909 10911 10912 10911 10910 10911 10912 10912 10913 10912 10912 10913
10715 10712 10709 10705 10702 10698 10694 10690 10687 10684 10681 10678 10675 10674 10673 10673 10672 10672 10674 10676 10678 10681 10685 10689 10693 10699 10704 10708 10712 10717 10722 10728 10734 10741 10748 10756 10763 10769 10776 10783 10789 10794 10800 10806 10812 10817 10822 10826 10832 10837 10841 10846 10850 10854 10857 10860 10863 10866 10869 10872 10874 10876 10879 10882 10885 10887 10889 10890 10893 10896 10898 10900 10902 10904 10906 10906 10905 10904 10904 10905 10905 10905 10905 10904 10904
10708 10706 10702 10699 10695 10692 10688 10684 10680 10677 10675 10672 10669 10667 10666 10666 10666 10666 10667 10668 10671 10674 10677 10681 10686 10690 10692 10696 10702 10709 10714 10719 10726 10733 10741 10749 10755 10762 10768 10775 10781 10786 10792 10798 10805 10810 10814 10819 10825 10830 10835 10839 10843 10847 10850 10854 10857 10861 10864 10866 10869 10871 10874 10877 10880 10882 10884 10886 10888 10890 10892 10894 10897 10898 10899 10900 10899 10899 10899 10899 10898 10898 10898 10897 10897
10702 10699 10696 10692 10689 10685 10681 10677 10673 10670 10667 10665 10663 10661 10659 10659 10659 10660 10660 10661 10663 10666 10669 10673 10677 10679 10681 10686 10693 10699 10705 10712 10718 10725 10732 10739 10746 10753 10760 10767 10774 10779 10785 10792 10798 10803 10807 10812 10818 10823 10828 10832 10836 10840 10844 10848 10851 10855 10858 10861 10864 10866 10869 10872 10875 10877 10879 10881 10883 10886 10887 10889 10891 10893 10894 10893 10893 10893 10895 10894 10892 10891 10892 10891 10891
10696 10692 10689 10685 10682 10678 10675 10670 10666 10663 10660 10658 10656 10654 10653 10653 10653 10653 10654 10654 10656 10658 10661 10664 10668 10670 10674 10679 10685 10690 10696 10703 10710 10716 10722 10728 10735 10743 10751 10759 10766 10773 10778 10784 10790 10795 10800 10805 10810 10815 10820 10825 10829 10833 10837 10841 10845 10849 10852 10856 10858 10861 10863 10866 10869 10872 10874 10877 10879 10881 10883 10884 10886 10887 10888 10888 10888 10888 10888 10888 10887 10886 10886 10886 10886
10689 10685 10682 10677 10674 10670 10667 10663 10659 10656 10653 10651 10649 10648 10647 10646 10646 10647 10648 10648 10649 10651 10654 10656 10660 10663 10666 10672 10677 10682 10688 10695 10701 10708 10714 10719 10726 10734 10742 10750 10758 10764 10770 10777 10783 10788 10793 10798 10802 10808 10813 10818 10822 10826 10830 10834 10838 10842 10846 10850 10853 10855 10857 10861 10864 10867 10870 10873 10874 10875 10877 10879 10881 10881 10881 10882 10883 10883 10883 10882 10882 10881 10881 10881 10881
10682 10678 10674 10670 10666 10662 10659 10656 10652 10648 10646 10644 10642 10641 10641 10640 10640 10641 10642 10642 10643 10644 10647 10649 10652 10655 10659 10664 10669 10674 10680 10686 10693 10699 10705 10712 10719 10726 10734 10742 10750 10756 10763 10770 10776 10781 10786 10790 10795 10801 10806 10811 10816 10820 10823 10827 10831 10835 10839 10843 10846 10849 10852 10855 10859 10862 10865 10867 10868 10869 10871 10873 10875 10875 10876 10876 10877 10877 10877 10876 10876 10876 10876 10876 10876
10675 10671 10667 10663 10658 10653 10650 10647 10644 10641 10639 10637 10636 10635 10635 10635 10635 10635 10636 10637 10637 10638 10640 10642 10645 10648 10652 10656 10661 10667 10672 10677 10683 10690 10697 10704 10711 10719 10726 10734 10742 10749 10756 10763 10768 10774 10778 10783 10788 10794 10799 10804 10809 10813 10817 10820 10824 10828 10833 10836 10839 10842 10845 10849 10852 10855 10858 10860 10861 10862 10865 10867 10869 10869 10870 10870 10871 10871 10871 10870 10870 10871 10872 10872 10871
10668 10664 10660 10655 10650 10645 10641 10639 10636 10634 10632 10630 10629 10629 10629 10629 10630 10630 10631 10631 10632 10633 10634 10636 10638 10641 10645 10649 10654 10659 10664 10669 10675 10682 10689 10697 10704 10711 10719 10727 10736 10743 10750 10757 10762 10767 10771 10777 10782 10787 10792 10798 10802 10806 10810 10814 10818 10822 10826 10829 10832 10835 10838 10842 10846 10848 10851 10853 10854 10856 10858 10861 10863 10863 10864 10864 10864 10865 10865 10865 10865 10866 10867 10866 10864
10659 10656 10652 10647 10642 10636 10633 10631 10628 10627 10625 10624 10623 10623 10623 10624 10625 10625 10625 10626 10626 10627 10627 10629 10632 10635 10639 10643 10646 10651 10657 10662 10669 10675 10683 10691 10698 10704 10712 10721 10729 10737 10744 10752 10757 10761 10766 10771 10777 10782 10787 10792 10796 10800 10804 10807 10811 10815 10819 10822 10825 10828 10832 10835 10838 10841 10844 10846 10848 10849 10852 10855 10857 10856 10856 10857 10859 10860 10859 10859 10860 10860 10860 10859 10857
10651 10647 10643 10639 10633 10629 10625 10623 10621 10619 10619 10618 10618 10618 10619 10619 10620 10621 10621 10621 10621 10621 10621 10622 10625 10628 10631 10635 10639 10644 10650 10657 10663 10669 10677 10684 10691 10698 10706 10715 10723 10732 10741 10746 10750 10754 10760 10766 10771 10777 10781 10785 10789 10793 10797 10800 10804 10808 10812 10815 10818 10822 10825 10828 10831 10834 10837 10840 10841 10843 10846 10848 10850 10849 10847 10849 10853 10854 10853 10853 10854 10853 10852 10851 10850
10642 10638 10634 10629 10625 10621 10619 10617 10614 10613 10613 10613 10613 10613 10614 10614 10615 10617 10617 10616 10616 10617 10616 10617 10619 10621 10624 10628 10632 10637 10644 10650 10656 10663 10670 10677 10685 10693 10700 10708 10716 10725 10732 10737 10742 10749 10755 10760 10765 10770 10774 10778 10782 10786 10790 10794 10797 10801 10805 10808 10811 10815 10818 10821 10825 10828 10831 10833 10835 10836 10837 10839 10841 10842 10841 10842 10845 10846 10845 10845 10846 10846 10845 10844 10843
10634 10630 10626 10621 10616 10613 10612 10610 10608 10607 10608 10608 10609 10609 10610 10610 10611 10613 10614 10613 10614 10614 10614 10615 10615 10617 10620 10623 10627 10632 10638 10644 10650 10658 10665 10672 10679 10687 10694 10701 10709 10716 10723 10730 10735 10741 10746 10751 10757 10762 10766 10770 10775 10779 10783 10786 10790 10794 10798 10801 10805 10808 10811 10815 10818 10821 10824 10827 10829 10829 10829 10830 10832 10835 10836 10836 10837 10838 10838 10838 10838 10838 10837 10837 10836
10626 10622 10618 10613 10608 10606 10606 10605 10603 10603 10604 10604 10605 10606 10606 10607 10608 10609 10611 10611 10611 10612 10613 10613 10613 10614 10617 10620 10623 10628 10633 10639 10646 10653 10659 10666 10673 10680 10688 10696 10705 10712 10719 10721 10722 10725 10732 10740 10747 10753 10758 10763 10768 10772 10775 10779 10783 10787 10791 10794 10798 10802 10805 10808 10811 10814 10817 10820 10823 10823 10822 10823 10824 10826 10828 10830 10830 10831 10831 10831 10830 10830 10830 10829 10829
10618 10614 10611 10606 10602 10600 10600 10599 10598 10598 10599 10600 10601 10602 10603 10603 10604 10605 10606 10607 10608 10609 10610 10610 10610 10611 10614 10617 10620 10624 10629 10635 10642 10648 10654 10661 10668 10675 10683 10692 10700 10706 10710 10710 10710 10716 10725 10733 10740 10745 10751 10756 10760 10764 10768 10772 10776 10780 10784 10788 10791 10795 10798 10801 10804 10807 10809 10813 10816 10817 10817 10817 10818 10819 10820 10821 10822 10822 10823 10822 10822 10822 10822 10821 10821
10609 10606 10603 10599 10596 10595 10594 10594 10594 10594 10595 10596 10597 10598 10599 10600 10600 10601 10602 10604 10605 10605 10606 10606 10607 10609 10611 10614 10618 10620 10624 10631 10638 10644 10651 10658 10664 10671 10680 10688 10694 10699 10702 10705 10710 10718 10725 10730 10735 10740 10745 10750 10754 10758 10762 10766 10770 10774 10778 10781 10784 10788 10791 10794 10797 10800 10802 10805 10807 10809 10810 10811 10812 10813 10814 10814 10815 10815 10815 10815 10814 10814 10814 10814 10814
10601 10598 10595 10593 10591 10589 10589 10589 10590 10590 10591 10593 10594 10595 10596 10598 10599 10600 10601 10602 10602 10602 10603 10604 10606 10609 10611 10614 10616 10618 10623 10628 10635 10642 10649 10655 10662 10669 10676 10683 10689 10695 10700 10704 10710 10717 10722 10727 10732 10736 10740 10744 10748 10752 10756 10761 10764 10767 10771 10775 10778 10781 10785 10787 10790 10792 10794 10797 10799 10800 10802 10804 10805 10806 10807 10808 10808 10808 10808 10808 10808 10808 10807 10807 10806
10594 10591 10588 10586 10585 10585 10585 10585 10586 10587 10588 10589 10591 10592 10594 10595 10597 10597 10598 10599 10599 10599 10601 10603 10605 10608 10611 10613 10615 10618 10622 10627 10633 10640 10647 10653 10660 10667 10674 10680 10688 10694 10698 10701 10707 10713 10717 10722 10727 10730 10734 10738 10742 10746 10750 10754 10757 10760 10764 10768 10771 10774 10777 10780 10783 10785 10787 10789 10791 10793 10794 10796 10797 10799 10800 10801 10802 10802 10802 10801 10801 10801 10800 10799 10799
10588 10585 10583 10581 10581 10581 10581 10582 10583 10583 10584 10586 10587 10589 10590 10591 10592 10593 10593 10594 10595 10596 10597 10600 10602 10605 10607 10611 10615 10619 10623 10627 10632 10637 10642 10648 10655 10663 10669 10676 10683 10689 10692 10696 10703 10708 10712 10716 10720 10724 10728 10732 10736 10739 10743 10746 10750 10754 10757 10760 10764 10767 10770 10772 10775 10777 10780 10782 10784 10786 10788 10789 10791 10792 10793 10794 10794 10794 10794 10793 10793 10792 10792 10791 10790
10583 10580 10578 10578 10577 10578 10578 10579 10580 10581 10582 10583 10584 10585 10586 10586 10588 10589 10590 10591 10592 10593 10594 10596 10598 10600 10603 10608 10612 10616 10621 10626 10630 10633 10637 10644 10651 10658 10663 10668 10675 10681 10686 10692 10698 10703 10706 10710 10713 10717 10721 10725 10728 10732 10735 10739 10743 10746 10750 10753 10756 10759 10762 10764 10767 10769 10772 10774 10777 10779 10781 10783 10784 10785 10786 10786 10787 10786 10786 10785 10785 10784 10783 10783 10782
10578 10576 10575 10575 10575 10575 10576 10577 10578 10578 10579 10580 10581 10581 10582 10583 10584 10585 10586 10587 10588 10590 10591 10593 10596 10599 10603 10607 10609 10612 10617 10622 10626 10630 10636 10643 10649 10654 10659 10664 10669 10675 10681 10688 10693 10697 10700 10704 10707 10711 10715 10719 10722 10726 10729 10732 10736 10739 10743 10746 10749 10752 10754 10757 10759 10762 10764 10767 10769 10771 10773 10774 10775 10777 10778 10779 10780 10779 10777 10776 10775 10774 10774 10773 10772
10575 10573 10573 10573 10573 10574 10574 10575 10575 10576 10577 10577 10578 10578 10579 10580 10581 10582 10583 10584 10585 10586 10588 10590 10593 10598 10602 10604 10606 10609 10615 10620 10625 10630 10636 10642 10648 10653 10658 10661 10665 10671 10677 10683 10688 10692 10695 10699 10702 10706 10709 10713 10716 10720 10723 10726 10730 10733 10737 10740 10743 10746 10748 10751 10753 10755 10757 10759 10760 10762 10764 10765 10767 10769 10771 10772 10772 10769 10766 10765 10764 10764 10764 10765 10764
10572 10571 10571 10571 10572 10572 10573 10573 10574 10574 10575 10575 10575 10576 10576 10577 10578 10578 10579 10580 10582 10583 10585 10588 10592 10596 10599 10601 10603 10609 10615 10620 10624 10629 10634 10639 10645 10651 10655 10659 10663 10668 10674 10679 10683 10686 10690 10694 10697 10699 10703 10707 10712 10715 10718 10721 10724 10727 10730 10733 10736 10739 10742 10744 10746 10748 10749 10751 10752 10753 10755 10757 10760 10762 10765 10765 10762 10758 10756 10755 10755 10755 10756 10757 10756
10570 10570 10570 10570 10570 10571 10571 10572 10572 10573 10573 10573 10573 10573 10574 10575 10575 10576 10577 10579 10580 10582 10585 10588 10592 10595 10598 10600 10604 10609 10614 10619 10624 10629 10632 10636 10642 10647 10652 10657 10662 10666 10670 10674 10678 10682 10686 10689 10691 10694 10698 10703 10706 10708 10712 10715 10718 10721 10724 10727 10729 10732 10735 10737 10738 10739 10740 10742 10743 10745 10747 10749 10751 10754 10757 10757 10752 10748 10747 10747 10746 10746 10748 10748 10746
10569 10569 10569 10570 10570 10570 10570 10571 10571 10571 10571 10571 10571 10572 10572 10573 10574 10575 10576 10577 10580 10583 10586 10589 10592 10595 10599 10602 10606 10610 10615 10619 10624 10628 10632 10636 10640 10645 10650 10655 10660 10664 10667 10671 10675 10679 10683 10685 10687 10691 10695 10697 10699 10703 10707 10711 10714 10716 10719 10721 10723 10725 10727 10728 10729 10730 10731 10733 10735 10737 10739 10741 10743 10746 10747 10747 10744 10741 10740 10740 10739 10739 10740 10739 10737
10569 10569 10569 10569 10570 10570 10570 10570 10570 10570 10570 10570 10570 10570 10571 10572 10572 10573 10575 10578 10581 10584 10587 10590 10593 10597 10601 10604 10608 10612 10617 10621 10625 10628 10631 10635 10640 10644 10649 10653 10657 10661 10664 10668 10672 10676 10679 10681 10685 10688 10691 10693 10695 10700 10704 10706 10708 10710 10713 10714 10716 10717 10719 10720 10721 10722 10724 10726 10728 10730 10732 10733 10735 10737 10738 10738 10736 10735 10734 10732 10732 10732 10731 10730 10729
10569 10569 10569 10569 10569 10569 10569 10569 10569 10569 10569 10569 10569 10570 10570 10570 10571 10572 10575 10578 10582 10585 10589 10592 10596 10600 10603 10607 10610 10614 10617 10621 10624 10627 10630 10635 10639 10642 10646 10650 10654 10657 10661 10666 10670 10673 10675 10678 10681 10684 10686 10687 10690 10693 10696 10699 10702 10704 10706 10708 10709 10711 10712 10713 10713 10715 10717 10720 10721 10723 10725 10726 10727 10728 10729 10729 10728 10728 10726 10725 10724 10724 10722 10721 10720